Flag for Canada Weather past 2 weeks in Ottawa, Ontario, Canada

Now
73 °F

Partly sunny.


Feels Like: 75 °F
Forecast: 63 / 77 °F
Wind: 14 mph from South

Location: Ottawa Int'L. Ont.

Current Time: Aug 3, 2015 at 4:09:18 PM

Latest Report: Aug 3, 2015 at 3:00 PM


Visibility: 15 mi

Pressure: 29.66 "Hg

Humidity: 74%

Dew point: 64 °F

Location of OttawaLocation

Historic Weather in Ottawa — Graph

°F

Ottawa temperature yesterday

Maximum temperature yesterday: 82 °F (at 3:00 PM)
Minimum temperature yesterday: 57 °F (at 3:00 AM)
Average temperature yesterday: 69 °F

Past Weeks' High & Low Weather Summary

 TemperatureHumidityPressure
High93 °F (Jul 28, 4:00 PM)100% (Jul 21, 8:47 AM)29.99 "Hg (Jul 21, 8:47 AM)
Low57 °F (Jul 24, 1:00 AM)36% (Jul 23, 4:00 PM)29.53 "Hg (Jul 21, 1:00 PM)
Average72 °F72%29.80 "Hg
* Reported Jul 19 2:00 PM — Aug 3 2:00 PM, Ottawa, Weather by CustomWeather, © 2015

Note: Actual official high and low records may vary slightly from our data, if they occured in-between our weather recording intervals... More about our weather records

Advertising

Ottawa weather history for previous 24 hours

 ConditionsComfort  
Time TempWeatherWind HumidityBarometerVisibility
2:00 PM
Mon, Aug 3
73 °FPartly sunny.15 mph69%29.68 "Hg15 mi
1:00 PM72 °FPartly sunny.10 mph78%29.68 "Hg15 mi
12:00 PM68 °FLight rain. Partly sunny.10 mph83%29.68 "Hg10 mi
11:00 AM68 °FBroken clouds.8 mph88%29.67 "Hg15 mi
10:00 AM66 °FPartly sunny.8 mph94%29.66 "Hg15 mi
9:00 AM66 °FLight rain. Mostly cloudy.9 mph94%29.65 "Hg10 mi
8:00 AM64 °FLight rain. Partly sunny.8 mph94%29.63 "Hg10 mi
7:00 AM64 °FLight rain. Overcast.9 mph94%29.62 "Hg10 mi
6:00 AM64 °FSprinkles. Overcast.7 mph94%29.60 "Hg15 mi
5:00 AM64 °FMostly cloudy.7 mph94%29.58 "Hg15 mi
4:00 AM64 °FPassing clouds.7 mph94%29.59 "Hg15 mi
3:00 AM64 °FOvercast.10 mph94%29.56 "Hg15 mi
2:00 AM63 °FMostly cloudy.8 mph100%29.61 "Hg10 mi
1:00 AM64 °FSprinkles. Mostly cloudy.12 mph88%29.66 "Hg15 mi
12:00 AM68 °FPassing clouds.10 mph73%29.65 "Hg15 mi
11:00 PM
Sun, Aug 2
70 °FPassing clouds.10 mph64%29.65 "Hg15 mi
10:00 PM73 °FPassing clouds.17 mph57%29.65 "Hg15 mi
9:00 PM73 °FSprinkles. Cloudy.9 mph57%29.65 "Hg15 mi
8:00 PM75 °FSprinkles. Mostly cloudy.14 mph57%29.69 "Hg15 mi
7:00 PM77 °FPartly sunny.13 mph51%29.71 "Hg15 mi
6:00 PM79 °FPartly sunny.16 mph48%29.72 "Hg15 mi
5:00 PM81 °FPartly sunny.17 mph51%29.72 "Hg15 mi
4:00 PM79 °FPartly sunny.15 mph54%29.74 "Hg15 mi
Weather by CustomWeather, © 2015

See weather overviewHow to use our weather pages